Location: Dos Palmas
(32.4468°N, 116.8732°W)
Time: 13:28:23
(UTC+00:00)

Cosmos 1655 Rocket - Pass Details

Date: 20 June 2021
Orbit: 971 x 1005 km, 82.9° (Epoch: 30 July)

Event Time Altitude Azimuth Distance (km) Brightness Sun altitude
Exits shadow 10:17:01 33° 164° (SSE) 1,561 4.7 -23.9°
Maximum altitude 10:19:50 66° 93° (E) 1,055 4.2 -23.5°
Drops below altitude 10° 10:26:00 10° 12° (NNE) 2,726 7.2 -22.7°
Sets 10:28:32 0° 10° (N) 3,680 8.0 -22.4°
